• MPC Preparation (Info)

  • MPEC 2016-Y81 : 2014 VT6

    The following Minor Planet Electronic Circular may be linked-to from your own Web pages, but must not otherwise be redistributed electronically.

    A form allowing access to any MPEC is at the bottom of this page.


    Read MPEC 2016-Y80 Read MPEC 2016-Y82


    M.P.E.C. 2016-Y81                                Issued 2016 Dec. 29, 23:21 UT
    
         The Minor Planet Electronic Circulars contain information on unusual
             minor planets and routine data on comets.  They are published
        on behalf of Division F of the International Astronomical Union by the
              Minor Planet Center, Smithsonian Astrophysical Observatory,
                              Cambridge, MA 02138, U.S.A.
    
                 Prepared using the Tamkin Foundation Computer Network
    
                                  MPC@CFA.HARVARD.EDU
                URL https://www.minorplanetcenter.net/    ISSN 1523-6714
    
                                       2014 VT6
    
                               Revision to MPEC 2014-V55
    
    Additional Observations:
         K14V06T  C2016 12 23.53287308 23 50.922-15 14 40.61         23.6 GUEY081T12
         K14V06T  C2016 12 23.54450608 23 50.015-15 14 48.08         23.9 GUEY081T12
         K14V06T  C2016 12 24.55613508 22 32.384-15 25 32.91         23.5 GUEY081T12
         K14V06T  C2016 12 24.56765208 22 31.451-15 25 40.09         23.4 GUEY081T12
    
    Observer details:
    T12 Mauna Kea-UH/Tholen NEO Follow-Up (2.24-m).  Observer D. J. Tholen.
        2.24-m University of Hawaii reflector.
    
    First and last observations above in comparison with prediction:
    Residuals in seconds of arc, reference and Delta-T
    161223 T12  7.8-  1.7+    161224 T12  7.9-  1.8+    MPO318682   +0.0086 day
    
    Orbital elements:
    2014 VT6                                                 Earth MOID = 0.0834 AU
    Epoch 2017 Feb. 16.0 TT = JDT 2457800.5                 MPC
    M 221.32782              (2000.0)            P               Q
    n   0.63350399     Peri.   68.78697     +0.33665885     +0.90656620
    a   1.3426716      Node   223.67046     -0.94103383     +0.31432814
    e   0.5509980      Incl.   21.63231     -0.03340883     +0.28166564
    P   1.56           H   20.4           G   0.15           U   3
    Residuals in seconds of arc
    141111 F51  0.1-  0.1-    141114 H21  0.5+  0.3-    141120 H21  0.2+  0.3-
    141111 F51  0.2+  0.1+    141114 H21  0.2+  0.1+    141121 H21  0.1+  0.4+
    141111 F51  0.0   0.1-    141114 H21  0.1-  0.3-    141121 H21  0.3+  0.4+
    141111 F51  0.0   0.2-    141116 703  0.1+  0.4+    141121 H21  0.3+  0.2+
    141111 958  0.3-  0.5-    141116 703  0.0   0.9+    141121 H21  0.2-  0.2+
    141112 958  0.7-  1.1-    141116 246  0.2+  0.2-    141121 H21  0.0   0.7+
    141112 958  0.7-  0.8-    141116 246  0.3+  0.2-    141121 F51  0.0   0.0
    141112 W86  0.2-  0.1+    141116 246  0.5+  0.1+    141121 F51  0.1-  0.0
    141112 W86  0.1-  0.2+    141116 246  0.5+  0.4+    141121 F51  0.0   0.0
    141112 W86  0.1-  0.2+    141116 246  0.9+  0.7+    141121 F51  0.0   0.0
    141112 W86  0.1-  0.2+    141116 246  1.3+  0.4+    141122 F51  0.1-  0.2-
    141112 W86  0.1-  0.1+    141117 291  0.4-  0.1-    141122 F51  0.2-  0.1-
    141112 W86  0.1-  0.1+    141117 291  0.1-  0.1+    141122 F51  0.1-  0.1-
    141112 W86  0.3-  0.0     141117 291  0.2-  0.3+    141124 F51  0.2-  0.0
    141112 711  0.2-  0.3+    141118 807  0.1+  0.3-    141124 F51  0.1-  0.1+
    141112 711  0.2-  0.2+    141118 807  0.2+  0.4-    141124 F51  0.1-  0.0
    141112 711  0.1-  0.5+    141118 807  0.1-  0.1-    141124 F51  0.2-  0.1-
    141112 711  0.2-  0.2+    141118 807  0.3-  0.1+    141128 F51  0.0   0.0
    141113 807  0.1+  0.2-    141118 807  0.3-  0.2+    141128 F51  0.0   0.1+
    141113 807  0.2+  0.2-    141119 G45  0.4+  0.4+    141128 F51  0.0   0.1-
    141113 807  0.0   0.0     141119 G45  0.0   0.3-    141128 F51  0.1+  0.0
    141113 807  0.3+  0.0     141119 G45  0.1-  0.1+    141212 F51  0.2-  0.1-
    141113 807  0.1+  0.2-    141119 H21  0.2-  0.2+    141212 F51  0.1+  0.1-
    141113 291  0.0   0.4+    141119 G45  0.3+  0.1-    141212 F51  0.1+  0.1+
    141113 291  0.0   0.2+    141119 H21  0.3+  0.1+    141212 F51  0.1+  0.0
    141113 291  0.0   0.4+    141119 G45  0.5-  0.4+    161223 T12  0.0   0.0
    141114 807  0.0   0.4-    141119 H21  1.1+  0.4-    161223 T12  0.0   0.0
    141114 807  0.0   0.1-    141120 H21  0.2+  0.1-    161224 T12  0.0   0.0
    141114 807  0.0   0.0     141120 H21  0.4+  0.0     161224 T12  0.0   0.0
    
    Ephemeris:
    2014 VT6                 a,e,i = 1.34, 0.55, 22                  q = 0.6029
    Date    TT    R. A. (2000) Decl.     Delta      r     Elong.  Phase     V
    2016 11 29    08 41 50.2 -09 44 39   1.5406  2.0789   108.7    26.7    24.1
    ...
    2016 12 14    08 33 52.7 -13 19 09   1.3937  2.0824   121.3    23.8    23.8
    ...
    2016 12 22    08 25 43.6 -14 57 42   1.3267  2.0809   127.9    21.9    23.7
    ...
    2016 12 28    08 17 49.6 -15 59 23   1.2836  2.0781   132.4    20.4    23.5
    2016 12 29    08 16 22.2 -16 08 24   1.2771  2.0775   133.2    20.2    23.5
    2016 12 30    08 14 52.5 -16 17 01   1.2708  2.0769   133.9    20.0    23.5
    ...
    2017 01 05    08 05 11.1 -16 59 35   1.2374  2.0723   137.6    18.7    23.4
    ...
    2017 01 13    07 50 46.6 -17 28 55   1.2056  2.0641   140.9    17.5    23.3
    ...
    2017 01 28    07 22 31.5 -16 50 36   1.1881  2.0421   139.9    18.1    23.3
    
    A. U. Tomatic                (C) Copyright 2016 MPC           M.P.E.C. 2016-Y81
    

    Read MPEC 2016-Y80 Read MPEC 2016-Y82


    MPEC number:

    Enter an MPEC number in one of the following forms:

    • 1997-B01 (the full form)
    • J97B01 (the packed version of the full form)
    • B01 (the abbreviated form)